Regional Weather Roundup
Issued by NWS

Home | Current Version | Previous Version | Text Only | Print | Product List | Glossary Off
Versions: 1 2 3 4 5 6 7 8 9 10 11 12 13 14 15 16 17 18 19 20 21 22 23 24 25 26 27 28 29 30 31 32 33 34 35 36 37 38 39 40 41 42 43 44 45 46 47 48 49 50

000
ASUS43 KLSX 302107
RWRMO

WEATHER SUMMARY FOR MISSOURI
NATIONAL WEATHER SERVICE SPRINGFIELD MO
400 PM CDT SAT JUL 30 2016

NOTE: "FAIR" INDICATES FEW OR NO CLOUDS BELOW 12,000 FEET WITH NO
       SIGNIFICANT WEATHER AND/OR OBSTRUCTIONS TO VISIBILITY.
       CURRENT SKY AND/OR WEATHER CONDITIONS ARE NOT AVAILABLE FOR
       CHILLICOTHE AND FARMINGTON.

MOZ001>031-035>038-043-044-053-054-302200-
...NORTHERN AND WESTERN MISSOURI...

CITY           SKY/WX    TMP DP  RH WIND       PRES   REMARKS
KANSAS CTY INT CLOUDY    80  64  58 CALM      29.99F
KANSAS C DTWN  MOSUNNY   84  64  50 NE3       29.97F
LEE`S SUMMIT   MOSUNNY   85  65  51 E6        30.00F
ST JOSEPH      CLOUDY    79  68  69 S6        29.98F
CHILLICOTHE      N/A     84  65  52 CALM      30.00F
KIRKSVILLE     CLOUDY    81  63  54 SW8       30.01F

$$
MOZ066>068-077>081-088>096-101>105-302200-
...SOUTHWEST MISSOURI...

CITY           SKY/WX    TMP DP  RH WIND       PRES   REMARKS
SPRINGFIELD    CLOUDY    85  66  53 VRB5      30.00F
JOPLIN         CLOUDY    85  70  60 VRB5      29.95F
BRANSON        CLOUDY    81  72  74 SW3       30.01F THUNDER

$$
MOZ032>034-039>042-045>050-055>058-069>072-302200-
...CENTRAL MISSOURI...

CITY           SKY/WX    TMP DP  RH WIND       PRES   REMARKS
COLUMBIA       MOSUNNY   81  64  56 NW8       30.00F
JEFFERSON CITY SUNNY     84  65  52 NW9       29.98F
ROLLA          MOSUNNY   84  66  54 NW12      30.00S
SEDALIA        PTSUNNY   83  68  60 NW6       30.02S
WHITEMAN AFB   MOSUNNY   84  67  56 VRB3      29.99S
OSAGE BEACH    PTSUNNY   83  68  60 VRB3      30.00F

$$
MOZ051-052-059>065-302200-
...EAST CENTRAL MISSOURI...

CITY           SKY/WX    TMP DP  RH WIND       PRES   REMARKS
ST LOUIS INTL  MOSUNNY   84  66  54 NW12      29.98F
SPIRIT OF STL  MOSUNNY   87  66  49 NW13      29.96F
ST CHARLES     SUNNY     84  65  52 NW12      29.96F

$$
MOZ072>076-082>087-097>100-106>115-302200-
...SOUTH CENTRAL AND SOUTHEAST MISSOURI...

CITY           SKY/WX    TMP DP  RH WIND       PRES   REMARKS
CAPE GIRARDEAU SUNNY     85  71  63 SW8       29.96S HX  90
FARMINGTON     MOSUNNY   85  67  54 NW6       29.99S
POPLAR BLUFF   SUNNY     88  71  57 VRB3      29.96S HX  94
WEST PLAINS    CLOUDY    85  66  53 W7        30.02F

$$


USA.gov is the U.S. government's official web portal to all federal, state and local government web resources and services.